Station Historical Data
Daily Summary for January 29, 2017 Units:  English    Metric   Both
« Previous Day
Next Day »
Daily Weekly Monthly Yearly Custom
  High: Low: Average:
Temperature: 28.7 °F 18.2 °F 25.8 °F
Dew Point: 26.7 °F 13.3 °F 18.7 °F
Humidity: 92% 58% 75%
Wind Speed: 12.0mph 0.0mph 4.6mph
Wind Gust: 18.0mph - -
Wind- - West
Pressure: 29.80 in 29.62 in -
Precipitation: 0.00 in    
Historical Graphs
 
 
Tabular Data for January 29, 2017
Time Temperature Dew Point Pressure Wind Wind Speed Wind Gust Humidity Rainfall Rate (Hourly)
00:04 28.7 °F 26.7 °F 29.62 in West 5.0 mph 11.0 mph 92% 0.00 in
00:09 28.7 °F 26.7 °F 29.62 in West 6.0 mph 13.0 mph 92% 0.00 in
00:14 28.7 °F 26.4 °F 29.62 in WNW 5.0 mph 9.0 mph 91% 0.00 in
00:19 28.7 °F 26.4 °F 29.62 in WSW 5.0 mph 10.0 mph 91% 0.00 in
00:24 28.6 °F 26.3 °F 29.62 in West 5.0 mph 12.0 mph 91% 0.00 in
00:29 28.6 °F 26.3 °F 29.62 in WSW 4.0 mph 10.0 mph 91% 0.00 in
00:34 28.6 °F 26.0 °F 29.62 in WSW 8.0 mph 10.0 mph 90% 0.00 in
00:39 28.5 °F 25.9 °F 29.62 in West 4.0 mph 9.0 mph 90% 0.00 in
00:44 28.5 °F 25.7 °F 29.62 in WSW 5.0 mph 9.0 mph 89% 0.00 in
00:49 28.4 °F 25.6 °F 29.62 in West 5.0 mph 10.0 mph 89% 0.00 in
00:54 28.4 °F 25.6 °F 29.62 in West 5.0 mph 13.0 mph 89% 0.00 in
00:59 28.5 °F 25.7 °F 29.62 in West 5.0 mph 13.0 mph 89% 0.00 in
01:05 28.4 °F 25.6 °F 29.62 in WSW 5.0 mph 12.0 mph 89% 0.00 in
01:10 28.3 °F 25.5 °F 29.62 in WSW 6.0 mph 12.0 mph 89% 0.00 in
01:15 28.3 °F 25.5 °F 29.62 in WSW 6.0 mph 11.0 mph 89% 0.00 in
01:20 28.3 °F 25.2 °F 29.62 in SW 2.0 mph 8.0 mph 88% 0.00 in
01:25 28.2 °F 25.1 °F 29.62 in West 5.0 mph 13.0 mph 88% 0.00 in
01:30 28.2 °F 25.1 °F 29.62 in WSW 6.0 mph 9.0 mph 88% 0.00 in
01:35 28.1 °F 25.3 °F 29.62 in West 6.0 mph 10.0 mph 89% 0.00 in
01:40 28.1 °F 25.0 °F 29.62 in WNW 3.0 mph 9.0 mph 88% 0.00 in
01:45 28.0 °F 24.9 °F 29.62 in West 6.0 mph 8.0 mph 88% 0.00 in
01:50 28.0 °F 24.9 °F 29.63 in West 5.0 mph 13.0 mph 88% 0.00 in
01:55 27.9 °F 24.8 °F 29.63 in West 5.0 mph 13.0 mph 88% 0.00 in
02:00 27.9 °F 24.8 °F 29.63 in WSW 6.0 mph 10.0 mph 88% 0.00 in
02:05 27.8 °F 24.4 °F 29.63 in WSW 3.0 mph 10.0 mph 87% 0.00 in
02:10 27.8 °F 24.4 °F 29.63 in SW 4.0 mph 9.0 mph 87% 0.00 in
02:15 27.8 °F 24.4 °F 29.63 in West 4.0 mph 9.0 mph 87% 0.00 in
02:20 27.7 °F 24.3 °F 29.63 in West 4.0 mph 11.0 mph 87% 0.00 in
02:25 27.7 °F 24.3 °F 29.63 in West 4.0 mph 11.0 mph 87% 0.00 in
02:30 27.6 °F 24.2 °F 29.63 in West 4.0 mph 9.0 mph 87% 0.00 in
02:35 27.6 °F 24.2 °F 29.63 in West 2.0 mph 10.0 mph 87% 0.00 in
02:40 27.6 °F 24.0 °F 29.63 in WSW 4.0 mph 9.0 mph 86% 0.00 in
02:45 27.5 °F 23.9 °F 29.63 in West 4.0 mph 9.0 mph 86% 0.00 in
02:50 27.5 °F 23.9 °F 29.63 in West 4.0 mph 9.0 mph 86% 0.00 in
02:55 27.4 °F 23.8 °F 29.64 in West 2.0 mph 8.0 mph 86% 0.00 in
03:00 27.4 °F 23.5 °F 29.64 in SW 4.0 mph 10.0 mph 85% 0.00 in
03:05 27.4 °F 23.5 °F 29.64 in WSW 5.0 mph 8.0 mph 85% 0.00 in
03:10 27.4 °F 23.8 °F 29.64 in West 3.0 mph 9.0 mph 86% 0.00 in
03:15 27.3 °F 23.7 °F 29.64 in West 7.0 mph 9.0 mph 86% 0.00 in
03:20 27.4 °F 23.5 °F 29.64 in WSW 4.0 mph 11.0 mph 85% 0.00 in
03:25 27.4 °F 23.5 °F 29.64 in WSW 5.0 mph 11.0 mph 85% 0.00 in
03:30 27.3 °F 23.4 °F 29.64 in WSW 5.0 mph 11.0 mph 85% 0.00 in
03:35 27.3 °F 23.4 °F 29.64 in WSW 2.0 mph 11.0 mph 85% 0.00 in
03:40 27.4 °F 23.5 °F 29.64 in West 3.0 mph 11.0 mph 85% 0.00 in
03:45 27.4 °F 23.2 °F 29.64 in WNW 6.0 mph 10.0 mph 84% 0.00 in
03:50 27.4 °F 23.2 °F 29.64 in WNW 6.0 mph 10.0 mph 84% 0.00 in
03:55 27.4 °F 23.2 °F 29.65 in West 5.0 mph 10.0 mph 84% 0.00 in
04:00 27.4 °F 23.2 °F 29.65 in West 5.0 mph 11.0 mph 84% 0.00 in
04:05 27.4 °F 23.2 °F 29.65 in West 5.0 mph 11.0 mph 84% 0.00 in
04:10 27.5 °F 23.3 °F 29.65 in WSW 6.0 mph 12.0 mph 84% 0.00 in
04:15 27.4 °F 22.9 °F 29.65 in West 6.0 mph 12.0 mph 83% 0.00 in
04:20 27.4 °F 22.9 °F 29.65 in WNW 8.0 mph 11.0 mph 83% 0.00 in
04:25 27.4 °F 23.2 °F 29.65 in West 6.0 mph 11.0 mph 84% 0.00 in
04:30 27.3 °F 23.1 °F 29.65 in West 6.0 mph 11.0 mph 84% 0.00 in
04:35 27.2 °F 23.0 °F 29.66 in West 5.0 mph 11.0 mph 84% 0.00 in
04:39 27.2 °F 23.0 °F 29.66 in West 4.0 mph 9.0 mph 84% 0.00 in
04:45 27.0 °F 22.8 °F 29.66 in SW 4.0 mph 7.0 mph 84% 0.00 in
04:50 27.0 °F 23.1 °F 29.66 in WSW 3.0 mph 8.0 mph 85% 0.00 in
04:54 26.9 °F 23.0 °F 29.66 in West 4.0 mph 8.0 mph 85% 0.00 in
05:00 26.9 °F 23.0 °F 29.67 in West 4.0 mph 8.0 mph 85% 0.00 in
05:05 26.8 °F 22.9 °F 29.67 in SW 7.0 mph 9.0 mph 85% 0.00 in
05:10 26.7 °F 22.8 °F 29.67 in WSW 10.0 mph 12.0 mph 85% 0.00 in
05:15 26.7 °F 22.5 °F 29.67 in WNW 12.0 mph 14.0 mph 84% 0.00 in
05:20 26.5 °F 22.0 °F 29.67 in NW 5.0 mph 12.0 mph 83% 0.00 in
05:25 26.4 °F 21.7 °F 29.66 in West 3.0 mph 11.0 mph 82% 0.00 in
05:30 26.3 °F 21.6 °F 29.67 in WNW 5.0 mph 11.0 mph 82% 0.00 in
05:35 26.2 °F 21.5 °F 29.67 in WNW 5.0 mph 9.0 mph 82% 0.00 in
05:40 26.1 °F 21.4 °F 29.67 in West 5.0 mph 9.0 mph 82% 0.00 in
05:45 26.1 °F 21.4 °F 29.67 in West 5.0 mph 11.0 mph 82% 0.00 in
05:50 26.1 °F 21.4 °F 29.67 in West 5.0 mph 11.0 mph 82% 0.00 in
05:54 26.0 °F 21.3 °F 29.67 in WNW 8.0 mph 9.0 mph 82% 0.00 in
05:59 26.0 °F 21.3 °F 29.67 in West 4.0 mph 9.0 mph 82% 0.00 in
06:05 26.0 °F 21.3 °F 29.67 in West 4.0 mph 5.0 mph 82% 0.00 in
06:10 25.9 °F 21.2 °F 29.67 in West 4.0 mph 9.0 mph 82% 0.00 in
06:15 25.9 °F 20.9 °F 29.67 in West 5.0 mph 11.0 mph 81% 0.00 in
06:20 25.9 °F 20.6 °F 29.67 in SW 6.0 mph 15.0 mph 80% 0.00 in
06:25 25.9 °F 20.3 °F 29.67 in West 11.0 mph 11.0 mph 79% 0.00 in
06:30 25.9 °F 19.7 °F 29.67 in SSW 10.0 mph 11.0 mph 77% 0.00 in
06:34 25.8 °F 19.6 °F 29.67 in West 6.0 mph 12.0 mph 77% 0.00 in
06:40 25.8 °F 19.3 °F 29.67 in West 6.0 mph 12.0 mph 76% 0.00 in
06:45 25.7 °F 19.2 °F 29.67 in West 6.0 mph 14.0 mph 76% 0.00 in
06:50 25.6 °F 19.1 °F 29.68 in West 6.0 mph 14.0 mph 76% 0.00 in
06:55 25.5 °F 19.0 °F 29.68 in West 6.0 mph 13.0 mph 76% 0.00 in
06:59 25.5 °F 18.7 °F 29.67 in WNW 10.0 mph 11.0 mph 75% 0.00 in
07:04 25.4 °F 18.6 °F 29.68 in West 5.0 mph 11.0 mph 75% 0.00 in
07:09 25.4 °F 18.6 °F 29.68 in NW 4.0 mph 11.0 mph 75% 0.00 in
07:15 25.3 °F 18.5 °F 29.68 in WNW 9.0 mph 11.0 mph 75% 0.00 in
07:20 25.2 °F 18.7 °F 29.68 in West 3.0 mph 9.0 mph 76% 0.00 in
07:25 25.3 °F 18.5 °F 29.68 in WNW 5.0 mph 9.0 mph 75% 0.00 in
07:30 25.2 °F 18.7 °F 29.68 in West 9.0 mph 10.0 mph 76% 0.00 in
07:35 25.2 °F 18.7 °F 29.69 in WNW 3.0 mph 9.0 mph 76% 0.00 in
07:39 25.1 °F 18.6 °F 29.69 in West 5.0 mph 11.0 mph 76% 0.00 in
07:45 25.1 °F 18.6 °F 29.69 in West 5.0 mph 11.0 mph 76% 0.00 in
07:50 25.1 °F 18.6 °F 29.69 in West 5.0 mph 10.0 mph 76% 0.00 in
07:54 25.1 °F 18.9 °F 29.69 in WNW 6.0 mph 10.0 mph 77% 0.00 in
07:59 25.1 °F 18.9 °F 29.69 in West 3.0 mph 6.0 mph 77% 0.00 in
08:04 25.0 °F 18.8 °F 29.70 in West 6.0 mph 8.0 mph 77% 0.00 in
08:09 25.1 °F 18.9 °F 29.70 in West 4.0 mph 10.0 mph 77% 0.00 in
08:14 25.1 °F 18.9 °F 29.69 in West 7.0 mph 10.0 mph 77% 0.00 in
08:19 25.1 °F 18.9 °F 29.69 in WNW 4.0 mph 11.0 mph 77% 0.00 in
08:25 25.2 °F 18.7 °F 29.70 in West 4.0 mph 11.0 mph 76% 0.00 in
08:30 25.2 °F 19.0 °F 29.70 in West 3.0 mph 10.0 mph 77% 0.00 in
08:35 25.3 °F 19.1 °F 29.70 in West 7.0 mph 9.0 mph 77% 0.00 in
08:40 25.3 °F 19.1 °F 29.70 in West 6.0 mph 8.0 mph 77% 0.00 in
08:44 25.4 °F 19.5 °F 29.70 in West 4.0 mph 8.0 mph 78% 0.00 in
08:50 25.4 °F 19.2 °F 29.71 in West 4.0 mph 9.0 mph 77% 0.00 in
08:55 25.4 °F 19.2 °F 29.71 in West 5.0 mph 9.0 mph 77% 0.00 in
09:00 25.5 °F 19.0 °F 29.71 in West 4.0 mph 9.0 mph 76% 0.00 in
09:05 25.6 °F 19.1 °F 29.71 in West 4.0 mph 8.0 mph 76% 0.00 in
09:09 25.7 °F 18.9 °F 29.71 in WSW 7.0 mph 9.0 mph 75% 0.00 in
09:14 25.8 °F 18.7 °F 29.71 in West 5.0 mph 11.0 mph 74% 0.00 in
09:19 25.9 °F 19.1 °F 29.71 in West 3.0 mph 10.0 mph 75% 0.00 in
09:24 25.9 °F 18.7 °F 29.71 in West 5.0 mph 9.0 mph 74% 0.00 in
09:29 26.0 °F 18.5 °F 29.72 in WNW 6.0 mph 13.0 mph 73% 0.00 in
09:34 26.1 °F 18.6 °F 29.71 in WNW 3.0 mph 10.0 mph 73% 0.00 in
09:39 26.2 °F 18.4 °F 29.71 in WNW 6.0 mph 11.0 mph 72% 0.00 in
09:44 26.2 °F 18.4 °F 29.71 in West 6.0 mph 14.0 mph 72% 0.00 in
09:49 26.3 °F 18.5 °F 29.72 in West 6.0 mph 14.0 mph 72% 0.00 in
09:55 26.3 °F 18.5 °F 29.72 in West 6.0 mph 12.0 mph 72% 0.00 in
10:00 26.4 °F 18.6 °F 29.72 in West 5.0 mph 11.0 mph 72% 0.00 in
10:05 26.5 °F 18.7 °F 29.73 in West 5.0 mph 11.0 mph 72% 0.00 in
10:09 26.6 °F 18.5 °F 29.73 in West 6.0 mph 10.0 mph 71% 0.00 in
10:14 26.6 °F 17.8 °F 29.73 in West 6.0 mph 13.0 mph 69% 0.00 in
10:19 26.8 °F 18.3 °F 29.73 in West 9.0 mph 14.0 mph 70% 0.00 in
10:24 26.7 °F 17.6 °F 29.73 in West 9.0 mph 14.0 mph 68% 0.00 in
10:29 26.7 °F 17.9 °F 29.73 in West 5.0 mph 12.0 mph 69% 0.00 in
10:34 26.7 °F 17.6 °F 29.73 in West 6.0 mph 12.0 mph 68% 0.00 in
10:40 26.7 °F 17.2 °F 29.73 in West 6.0 mph 10.0 mph 67% 0.00 in
10:45 26.7 °F 17.6 °F 29.73 in WSW 8.0 mph 11.0 mph 68% 0.00 in
10:49 26.8 °F 17.3 °F 29.73 in West 6.0 mph 12.0 mph 67% 0.00 in
10:54 26.9 °F 17.4 °F 29.74 in West 6.0 mph 13.0 mph 67% 0.00 in
10:59 26.8 °F 16.6 °F 29.74 in West 6.0 mph 13.0 mph 65% 0.00 in
11:05 26.9 °F 16.7 °F 29.74 in West 7.0 mph 12.0 mph 65% 0.00 in
11:10 26.9 °F 16.7 °F 29.73 in West 7.0 mph 18.0 mph 65% 0.00 in
11:14 27.0 °F 16.8 °F 29.73 in WNW 10.0 mph 14.0 mph 65% 0.00 in
11:19 27.1 °F 16.9 °F 29.74 in West 6.0 mph 14.0 mph 65% 0.00 in
11:24 27.3 °F 17.1 °F 29.74 in WSW 8.0 mph 12.0 mph 65% 0.00 in
11:29 27.2 °F 17.0 °F 29.74 in West 5.0 mph 10.0 mph 65% 0.00 in
11:34 27.4 °F 17.2 °F 29.74 in West 4.0 mph 11.0 mph 65% 0.00 in
11:39 27.6 °F 17.0 °F 29.74 in WSW 2.0 mph 8.0 mph 64% 0.00 in
11:44 27.6 °F 17.0 °F 29.74 in West 8.0 mph 15.0 mph 64% 0.00 in
11:49 27.4 °F 16.4 °F 29.73 in West 6.0 mph 15.0 mph 63% 0.00 in
11:54 27.5 °F 16.9 °F 29.73 in West 6.0 mph 14.0 mph 64% 0.00 in
11:59 27.7 °F 17.1 °F 29.73 in West 4.0 mph 9.0 mph 64% 0.00 in
12:04 27.7 °F 17.5 °F 29.73 in West 5.0 mph 8.0 mph 65% 0.00 in
12:10 27.8 °F 17.6 °F 29.73 in West 5.0 mph 10.0 mph 65% 0.00 in
12:14 27.9 °F 17.3 °F 29.73 in West 4.0 mph 10.0 mph 64% 0.00 in
12:19 28.0 °F 17.0 °F 29.73 in West 3.0 mph 11.0 mph 63% 0.00 in
12:24 27.9 °F 16.9 °F 29.73 in West 6.0 mph 12.0 mph 63% 0.00 in
12:29 27.9 °F 16.6 °F 29.73 in WSW 7.0 mph 13.0 mph 62% 0.00 in
12:34 27.8 °F 16.5 °F 29.73 in West 3.0 mph 8.0 mph 62% 0.00 in
12:39 27.8 °F 16.8 °F 29.72 in WSW 3.0 mph 9.0 mph 63% 0.00 in
12:44 27.8 °F 17.2 °F 29.72 in West 6.0 mph 11.0 mph 64% 0.00 in
12:49 27.7 °F 17.1 °F 29.72 in West 4.0 mph 11.0 mph 64% 0.00 in
12:54 27.7 °F 17.5 °F 29.72 in West 4.0 mph 8.0 mph 65% 0.00 in
12:59 27.7 °F 17.5 °F 29.72 in West 4.0 mph 9.0 mph 65% 0.00 in
13:04 27.6 °F 17.0 °F 29.72 in West 5.0 mph 9.0 mph 64% 0.00 in
13:10 27.6 °F 16.6 °F 29.72 in WSW 5.0 mph 10.0 mph 63% 0.00 in
13:15 27.6 °F 17.4 °F 29.72 in WSW 4.0 mph 10.0 mph 65% 0.00 in
13:19 27.7 °F 17.5 °F 29.72 in WSW 5.0 mph 8.0 mph 65% 0.00 in
13:24 27.7 °F 16.7 °F 29.72 in WSW 3.0 mph 10.0 mph 63% 0.00 in
13:29 27.7 °F 16.7 °F 29.72 in WNW 6.0 mph 9.0 mph 63% 0.00 in
13:34 27.7 °F 16.7 °F 29.71 in SW 7.0 mph 9.0 mph 63% 0.00 in
13:39 27.7 °F 16.7 °F 29.72 in WNW 8.0 mph 14.0 mph 63% 0.00 in
13:44 27.7 °F 16.7 °F 29.72 in West 6.0 mph 11.0 mph 63% 0.00 in
13:49 27.5 °F 16.9 °F 29.72 in WNW 7.0 mph 12.0 mph 64% 0.00 in
13:54 27.3 °F 16.4 °F 29.72 in WNW 7.0 mph 12.0 mph 63% 0.00 in
13:59 27.4 °F 16.4 °F 29.72 in West 6.0 mph 12.0 mph 63% 0.00 in
14:04 27.6 °F 16.6 °F 29.72 in West 6.0 mph 11.0 mph 63% 0.00 in
14:09 27.7 °F 16.4 °F 29.72 in West 6.0 mph 12.0 mph 62% 0.00 in
14:15 27.9 °F 16.2 °F 29.72 in West 8.0 mph 14.0 mph 61% 0.00 in
14:20 27.8 °F 16.1 °F 29.72 in West 4.0 mph 14.0 mph 61% 0.00 in
14:24 27.9 °F 16.2 °F 29.72 in West 6.0 mph 14.0 mph 61% 0.00 in
14:29 27.9 °F 15.8 °F 29.72 in WNW 8.0 mph 16.0 mph 60% 0.00 in
14:34 27.9 °F 16.2 °F 29.72 in WSW 5.0 mph 11.0 mph 61% 0.00 in
14:39 27.9 °F 16.2 °F 29.72 in WSW 5.0 mph 9.0 mph 61% 0.00 in
14:44 27.8 °F 16.1 °F 29.72 in West 5.0 mph 10.0 mph 61% 0.00 in
14:49 27.6 °F 15.9 °F 29.72 in WNW 7.0 mph 14.0 mph 61% 0.00 in
14:54 27.5 °F 16.2 °F 29.73 in West 6.0 mph 14.0 mph 62% 0.00 in
15:00 27.5 °F 16.5 °F 29.73 in WNW 5.0 mph 10.0 mph 63% 0.00 in
15:04 27.2 °F 15.9 °F 29.73 in WNW 8.0 mph 12.0 mph 62% 0.00 in
15:09 27.0 °F 16.1 °F 29.73 in West 8.0 mph 14.0 mph 63% 0.00 in
15:14 27.0 °F 16.4 °F 29.73 in West 6.0 mph 10.0 mph 64% 0.00 in
15:19 27.1 °F 16.9 °F 29.73 in WSW 4.0 mph 8.0 mph 65% 0.00 in
15:24 27.2 °F 16.3 °F 29.73 in West 5.0 mph 10.0 mph 63% 0.00 in
15:29 27.3 °F 16.0 °F 29.73 in West 5.0 mph 10.0 mph 62% 0.00 in
15:34 27.3 °F 14.8 °F 29.73 in West 6.0 mph 11.0 mph 59% 0.00 in
15:39 27.3 °F 14.5 °F 29.74 in West 6.0 mph 11.0 mph 58% 0.00 in
15:45 27.2 °F 14.4 °F 29.74 in WNW 3.0 mph 11.0 mph 58% 0.00 in
15:50 27.3 °F 15.2 °F 29.74 in West 5.0 mph 14.0 mph 60% 0.00 in
15:54 27.2 °F 15.1 °F 29.74 in WSW 1.0 mph 10.0 mph 60% 0.00 in
15:59 27.2 °F 15.1 °F 29.74 in WSW 4.0 mph 12.0 mph 60% 0.00 in
16:04 27.2 °F 15.1 °F 29.74 in WSW 6.0 mph 9.0 mph 60% 0.00 in
16:09 27.2 °F 15.1 °F 29.75 in SW 7.0 mph 14.0 mph 60% 0.00 in
16:14 27.2 °F 14.8 °F 29.75 in WSW 3.0 mph 12.0 mph 59% 0.00 in
16:20 27.2 °F 15.1 °F 29.75 in West 5.0 mph 12.0 mph 60% 0.00 in
16:24 27.1 °F 15.0 °F 29.75 in West 5.0 mph 9.0 mph 60% 0.00 in
16:29 27.1 °F 14.7 °F 29.75 in West 6.0 mph 13.0 mph 59% 0.00 in
16:34 27.0 °F 14.6 °F 29.75 in West 6.0 mph 13.0 mph 59% 0.00 in
16:40 26.9 °F 14.5 °F 29.76 in West 5.0 mph 12.0 mph 59% 0.00 in
16:44 26.9 °F 14.5 °F 29.76 in West 5.0 mph 12.0 mph 59% 0.00 in
16:49 26.9 °F 14.5 °F 29.76 in WNW 3.0 mph 10.0 mph 59% 0.00 in
16:54 26.8 °F 14.8 °F 29.76 in West 5.0 mph 10.0 mph 60% 0.00 in
16:59 26.7 °F 14.7 °F 29.76 in WSW 2.0 mph 11.0 mph 60% 0.00 in
17:04 26.6 °F 14.9 °F 29.76 in NW 4.0 mph 10.0 mph 61% 0.00 in
17:09 26.5 °F 15.2 °F 29.77 in WNW 6.0 mph 12.0 mph 62% 0.00 in
17:14 26.4 °F 15.5 °F 29.77 in WNW 7.0 mph 12.0 mph 63% 0.00 in
17:19 26.4 °F 15.9 °F 29.77 in West 6.0 mph 9.0 mph 64% 0.00 in
17:24 26.3 °F 16.5 °F 29.77 in WNW 5.0 mph 9.0 mph 66% 0.00 in
17:29 26.2 °F 16.7 °F 29.77 in WNW 4.0 mph 9.0 mph 67% 0.00 in
17:34 26.1 °F 17.0 °F 29.77 in WNW 4.0 mph 8.0 mph 68% 0.00 in
17:39 26.0 °F 17.2 °F 29.77 in WNW 3.0 mph 8.0 mph 69% 0.00 in
17:44 25.9 °F 17.8 °F 29.77 in NW 4.0 mph 8.0 mph 71% 0.00 in
17:49 25.7 °F 17.9 °F 29.77 in WNW 3.0 mph 8.0 mph 72% 0.00 in
17:54 25.6 °F 17.8 °F 29.77 in WNW 4.0 mph 9.0 mph 72% 0.00 in
17:59 25.5 °F 17.7 °F 29.78 in West 3.0 mph 8.0 mph 72% 0.00 in
18:04 25.4 °F 17.6 °F 29.78 in West 8.0 mph 8.0 mph 72% 0.00 in
18:09 25.3 °F 17.5 °F 29.78 in WSW 4.0 mph 9.0 mph 72% 0.00 in
18:14 25.3 °F 17.9 °F 29.77 in WNW 5.0 mph 11.0 mph 73% 0.00 in
18:19 25.2 °F 17.8 °F 29.77 in WNW 2.0 mph 9.0 mph 73% 0.00 in
18:24 25.1 °F 17.7 °F 29.78 in West 3.0 mph 8.0 mph 73% 0.00 in
18:29 25.1 °F 17.7 °F 29.78 in West 5.0 mph 10.0 mph 73% 0.00 in
18:34 25.0 °F 17.6 °F 29.78 in West 5.0 mph 10.0 mph 73% 0.00 in
18:39 25.0 °F 17.6 °F 29.78 in West 5.0 mph 9.0 mph 73% 0.00 in
18:44 25.0 °F 17.6 °F 29.78 in West 5.0 mph 9.0 mph 73% 0.00 in
18:49 25.0 °F 17.6 °F 29.78 in West 7.0 mph 8.0 mph 73% 0.00 in
18:54 25.0 °F 17.6 °F 29.78 in WNW 8.0 mph 8.0 mph 73% 0.00 in
18:59 25.1 °F 17.3 °F 29.78 in West 4.0 mph 9.0 mph 72% 0.00 in
19:04 25.1 °F 17.3 °F 29.79 in West 5.0 mph 9.0 mph 72% 0.00 in
19:09 25.1 °F 17.3 °F 29.79 in West 5.0 mph 9.0 mph 72% 0.00 in
19:14 25.1 °F 17.7 °F 29.79 in West 7.0 mph 9.0 mph 73% 0.00 in
19:19 25.1 °F 17.7 °F 29.79 in WNW 3.0 mph 10.0 mph 73% 0.00 in
19:24 25.1 °F 17.7 °F 29.79 in NW 6.0 mph 8.0 mph 73% 0.00 in
19:29 25.1 °F 17.7 °F 29.79 in West 5.0 mph 11.0 mph 73% 0.00 in
19:34 25.1 °F 17.7 °F 29.79 in West 5.0 mph 11.0 mph 73% 0.00 in
19:39 25.1 °F 17.7 °F 29.79 in West 4.0 mph 9.0 mph 73% 0.00 in
19:44 25.0 °F 17.2 °F 29.78 in WNW 5.0 mph 11.0 mph 72% 0.00 in
19:49 24.9 °F 16.8 °F 29.78 in West 3.0 mph 10.0 mph 71% 0.00 in
19:54 24.8 °F 17.1 °F 29.78 in West 5.0 mph 8.0 mph 72% 0.00 in
19:59 24.7 °F 17.0 °F 29.79 in NW 3.0 mph 9.0 mph 72% 0.00 in
20:04 24.7 °F 17.3 °F 29.78 in NW 4.0 mph 9.0 mph 73% 0.00 in
20:09 24.6 °F 17.2 °F 29.78 in West 6.0 mph 9.0 mph 73% 0.00 in
20:14 24.5 °F 17.1 °F 29.78 in WNW 4.0 mph 9.0 mph 73% 0.00 in
20:19 24.4 °F 17.0 °F 29.78 in West 1.0 mph 8.0 mph 73% 0.00 in
20:24 24.2 °F 16.8 °F 29.78 in WNW 3.0 mph 7.0 mph 73% 0.00 in
20:29 24.0 °F 16.6 °F 29.78 in WNW 2.0 mph 7.0 mph 73% 0.00 in
20:34 23.7 °F 16.6 °F 29.78 in West 5.0 mph 6.0 mph 74% 0.00 in
20:39 23.5 °F 16.4 °F 29.78 in WNW 2.0 mph 6.0 mph 74% 0.00 in
20:44 23.3 °F 16.2 °F 29.78 in WNW 2.0 mph 5.0 mph 74% 0.00 in
20:49 23.1 °F 16.0 °F 29.78 in West 2.0 mph 4.0 mph 74% 0.00 in
20:54 22.8 °F 15.8 °F 29.78 in West 2.0 mph 5.0 mph 74% 0.00 in
20:59 22.6 °F 15.9 °F 29.78 in WNW 1.0 mph 3.0 mph 75% 0.00 in
21:04 22.4 °F 16.0 °F 29.78 in West 1.0 mph 4.0 mph 76% 0.00 in
21:09 22.2 °F 15.8 °F 29.78 in West 1.0 mph 4.0 mph 76% 0.00 in
21:14 22.1 °F 15.7 °F 29.78 in Calm   2.0 mph 76% 0.00 in
21:19 21.9 °F 15.5 °F 29.78 in Calm     76% 0.00 in
21:24 21.7 °F 15.0 °F 29.78 in Calm     75% 0.00 in
21:29 21.4 °F 14.4 °F 29.78 in Calm     74% 0.00 in
21:34 20.9 °F 13.9 °F 29.79 in Calm     74% 0.00 in
21:39 20.6 °F 13.6 °F 29.79 in Calm     74% 0.00 in
21:44 20.3 °F 13.3 °F 29.79 in Calm     74% 0.00 in
21:49 20.0 °F 13.6 °F 29.79 in Calm   2.0 mph 76% 0.00 in
21:54 19.7 °F 13.7 °F 29.79 in WNW 1.0 mph 3.0 mph 77% 0.00 in
21:59 19.5 °F 13.8 °F 29.78 in WNW 1.0 mph 3.0 mph 78% 0.00 in
22:04 19.3 °F 13.9 °F 29.78 in Calm     79% 0.00 in
22:09 19.2 °F 13.8 °F 29.78 in Calm     79% 0.00 in
22:19 18.9 °F 13.5 °F 29.79 in Calm     79% 0.00 in
22:24 18.8 °F 13.7 °F 29.79 in Calm     80% 0.00 in
22:30 18.6 °F 13.5 °F 29.79 in Calm     80% 0.00 in
22:34 18.4 °F 13.3 °F 29.79 in Calm     80% 0.00 in
22:39 18.3 °F 13.4 °F 29.79 in Calm   2.0 mph 81% 0.00 in
22:44 18.2 °F 13.6 °F 29.79 in Calm   3.0 mph 82% 0.00 in
22:49 18.2 °F 13.9 °F 29.79 in WNW 1.0 mph 3.0 mph 83% 0.00 in
22:54 18.2 °F 13.9 °F 29.79 in Calm   2.0 mph 83% 0.00 in
22:59 18.3 °F 14.3 °F 29.79 in Calm   2.0 mph 84% 0.00 in
23:04 18.3 °F 14.3 °F 29.79 in Calm   2.0 mph 84% 0.00 in
23:09 18.4 °F 14.4 °F 29.79 in Calm   3.0 mph 84% 0.00 in
23:14 18.6 °F 14.8 °F 29.79 in NNW 3.0 mph 4.0 mph 85% 0.00 in
23:19 19.0 °F 15.5 °F 29.80 in NNW 4.0 mph 4.0 mph 86% 0.00 in
23:24 19.5 °F 16.0 °F 29.80 in NW 2.0 mph 5.0 mph 86% 0.00 in
23:29 20.0 °F 16.5 °F 29.80 in NW 3.0 mph 6.0 mph 86% 0.00 in
23:34 20.4 °F 16.9 °F 29.80 in NNW 2.0 mph 4.0 mph 86% 0.00 in
23:39 20.9 °F 17.1 °F 29.80 in NNW 2.0 mph 6.0 mph 85% 0.00 in
23:44 21.1 °F 17.3 °F 29.80 in NNW 3.0 mph 6.0 mph 85% 0.00 in
23:49 21.4 °F 17.6 °F 29.80 in NW 2.0 mph 4.0 mph 85% 0.00 in
23:54 21.5 °F 17.4 °F 29.80 in NNW 2.0 mph 4.0 mph 84% 0.00 in
23:59 21.6 °F 17.5 °F 29.79 in NNW 2.0 mph 5.0 mph 84% 0.00 in
Buffalo, New York, USA
Compliments of Weather Underground - 2.75 mb